TimeCDT,TemperatureF,Dew PointF,Humidity,Sea Level PressureIn,VisibilityMPH,Wind Direction,Wind SpeedMPH,Gust SpeedMPH,PrecipitationIn,Events,Conditions,WindDirDegrees,DateUTC
12:15 AM,67.1,66.7,99,29.92,3.0,Calm,Calm,-,0.07,Rain-Thunderstorm,Heavy Thunderstorms and Rain,0,2013-09-03 05:15:00
12:35 AM,66.7,66.6,99,29.94,2.0,WSW,3.5,-,0.24,Rain-Thunderstorm,Heavy Thunderstorms and Rain,240,2013-09-03 05:35:00
12:55 AM,66.6,66.4,99,29.95,1.2,SSE,4.6,-,0.45,Rain-Thunderstorm,Heavy Thunderstorms and Rain,160,2013-09-03 05:55:00
1:15 AM,67.3,67.1,99,29.94,3.0,West,3.5,-,0.13,Rain-Thunderstorm,Heavy Thunderstorms and Rain,260,2013-09-03 06:15:00
1:35 AM,67.3,66.4,97,29.93,3.0,West,4.6,-,0.24,Rain-Thunderstorm,Thunderstorms and Rain,270,2013-09-03 06:35:00
1:55 AM,67.5,67.1,99,29.94,2.5,SSE,3.5,-,0.34,Rain-Thunderstorm,Heavy Thunderstorms and Rain,160,2013-09-03 06:55:00
2:15 AM,67.3,67.1,99,29.92,5.0,East,3.5,-,0.05,Rain-Thunderstorm,Rain,80,2013-09-03 07:15:00
2:35 AM,67.3,67.1,99,29.92,10.0,Calm,Calm,-,0.05,Rain,Light Rain,0,2013-09-03 07:35:00
2:55 AM,67.1,66.7,99,29.92,7.0,Calm,Calm,-,0.05,,Scattered Clouds,0,2013-09-03 07:55:00
3:15 AM,67.1,66.7,99,29.93,7.0,Calm,Calm,-,N/A,,Mostly Cloudy,0,2013-09-03 08:15:00
3:35 AM,67.1,67.1,100,29.93,1.0,South,4.6,-,0.27,Rain,Heavy Rain,170,2013-09-03 08:35:00
3:55 AM,67.1,67.1,100,29.93,7.0,Calm,Calm,-,0.29,Rain,Light Rain,0,2013-09-03 08:55:00
4:15 AM,67.1,66.7,99,29.94,5.0,Calm,Calm,-,N/A,,Mostly Cloudy,0,2013-09-03 09:15:00
4:35 AM,66.7,66.6,99,29.94,7.0,Calm,Calm,-,N/A,,Overcast,0,2013-09-03 09:35:00
4:55 AM,67.1,66.7,99,29.95,7.0,Calm,Calm,-,N/A,,Overcast,0,2013-09-03 09:55:00
5:15 AM,66.7,66.6,99,29.95,7.0,Calm,Calm,-,N/A,,Overcast,0,2013-09-03 10:15:00
5:35 AM,67.1,66.9,99,29.96,7.0,Calm,Calm,-,N/A,,Overcast,0,2013-09-03 10:35:00
5:55 AM,67.1,66.9,99,29.96,7.0,Calm,Calm,-,N/A,,Overcast,0,2013-09-03 10:55:00
6:15 AM,67.3,67.1,99,29.97,7.0,Calm,Calm,-,N/A,,Overcast,0,2013-09-03 11:15:00
6:35 AM,67.3,67.1,99,29.97,5.0,Calm,Calm,-,N/A,,Overcast,0,2013-09-03 11:35:00
6:55 AM,67.3,67.1,99,29.98,5.0,Calm,Calm,-,N/A,,Overcast,0,2013-09-03 11:55:00
7:15 AM,67.5,67.1,99,29.98,7.0,Calm,Calm,-,N/A,,Mostly Cloudy,0,2013-09-03 12:15:00
7:35 AM,68.2,67.6,98,29.99,7.0,Calm,Calm,-,N/A,,Mostly Cloudy,0,2013-09-03 12:35:00
7:55 AM,68.9,67.3,95,29.99,10.0,Calm,Calm,-,N/A,,Overcast,0,2013-09-03 12:55:00
8:15 AM,69.3,67.3,93,29.99,10.0,Calm,Calm,-,N/A,,Mostly Cloudy,0,2013-09-03 13:15:00
8:35 AM,70.7,68.0,91,30.00,10.0,Calm,Calm,-,N/A,,Overcast,0,2013-09-03 13:35:00
8:55 AM,72.3,68.5,88,30.00,10.0,Calm,Calm,-,N/A,,Overcast,0,2013-09-03 13:55:00
9:15 AM,73.2,69.3,87,30.00,10.0,Calm,Calm,-,N/A,,Overcast,0,2013-09-03 14:15:00
9:35 AM,74.7,69.4,84,30.00,10.0,Calm,Calm,-,N/A,,Overcast,0,2013-09-03 14:35:00
9:55 AM,73.6,68.7,85,30.01,10.0,Calm,Calm,-,N/A,,Overcast,0,2013-09-03 14:55:00
10:15 AM,75.0,68.9,81,30.01,10.0,NNE,4.6,-,N/A,,Overcast,30,2013-09-03 15:15:00
10:35 AM,76.8,68.5,75,30.02,10.0,Calm,Calm,-,N/A,,Mostly Cloudy,0,2013-09-03 15:35:00
10:55 AM,78.1,68.9,73,30.01,10.0,North,4.6,-,N/A,,Mostly Cloudy,350,2013-09-03 15:55:00
11:15 AM,76.6,67.8,74,30.01,10.0,NNW,5.8,-,N/A,,Overcast,340,2013-09-03 16:15:00
11:35 AM,78.6,68.2,70,30.01,10.0,North,4.6,-,N/A,,Mostly Cloudy,10,2013-09-03 16:35:00
11:55 AM,77.0,66.7,70,30.01,10.0,North,8.1,-,N/A,,Overcast,10,2013-09-03 16:55:00
12:15 PM,79.0,68.2,69,30.00,10.0,NNE,9.2,-,N/A,,Mostly Cloudy,30,2013-09-03 17:15:00
12:35 PM,78.8,66.4,66,30.00,10.0,NNE,9.2,-,N/A,,Scattered Clouds,20,2013-09-03 17:35:00
12:55 PM,79.9,64.4,59,30.00,10.0,North,8.1,-,N/A,,Scattered Clouds,10,2013-09-03 17:55:00
1:15 PM,80.2,65.7,61,30.00,10.0,North,8.1,-,N/A,,Scattered Clouds,350,2013-09-03 18:15:00
1:35 PM,78.8,64.4,61,30.00,10.0,NNW,4.6,-,N/A,,Mostly Cloudy,330,2013-09-03 18:35:00
1:55 PM,80.1,64.6,59,30.00,10.0,NNE,8.1,-,N/A,,Scattered Clouds,20,2013-09-03 18:55:00
2:15 PM,80.4,63.9,57,30.00,10.0,NNE,6.9,-,N/A,,Mostly Cloudy,20,2013-09-03 19:15:00
2:35 PM,79.2,63.1,58,29.99,10.0,North,6.9,-,N/A,,Mostly Cloudy,360,2013-09-03 19:35:00
2:55 PM,80.6,63.7,56,29.99,10.0,North,5.8,-,N/A,,Scattered Clouds,350,2013-09-03 19:55:00
3:15 PM,80.2,62.8,55,29.98,10.0,NNW,8.1,-,N/A,,Scattered Clouds,340,2013-09-03 20:15:00
3:35 PM,80.8,62.2,53,29.98,10.0,NW,5.8,-,N/A,,Scattered Clouds,310,2013-09-03 20:35:00
3:55 PM,80.6,63.5,56,29.98,10.0,NW,6.9,-,N/A,,Scattered Clouds,320,2013-09-03 20:55:00
4:15 PM,79.0,62.6,57,29.98,10.0,NNE,5.8,-,N/A,,Scattered Clouds,20,2013-09-03 21:15:00
4:35 PM,78.3,62.4,58,29.98,10.0,NNW,5.8,-,N/A,,Clear,330,2013-09-03 21:35:00
4:55 PM,79.5,62.2,55,29.99,10.0,NW,5.8,-,N/A,,Clear,320,2013-09-03 21:55:00
5:15 PM,79.5,62.1,55,29.98,10.0,NNW,8.1,-,N/A,,Clear,330,2013-09-03 22:15:00
5:35 PM,78.8,61.7,56,29.99,10.0,North,6.9,-,N/A,,Clear,360,2013-09-03 22:35:00
5:55 PM,77.9,61.7,57,29.98,10.0,North,3.5,-,N/A,,Clear,360,2013-09-03 22:55:00
6:15 PM,77.0,63.0,62,29.98,10.0,Calm,Calm,-,N/A,,Clear,0,2013-09-03 23:15:00
6:35 PM,74.1,64.6,72,29.99,10.0,Calm,Calm,-,N/A,,Clear,0,2013-09-03 23:35:00
6:55 PM,71.6,64.0,77,30.00,10.0,Calm,Calm,-,N/A,,Clear,0,2013-09-03 23:55:00
7:15 PM,69.8,64.4,83,30.00,10.0,Calm,Calm,-,N/A,,Clear,0,2013-09-04 00:15:00
7:35 PM,68.9,63.9,84,30.02,10.0,Calm,Calm,-,N/A,,Clear,0,2013-09-04 00:35:00
7:55 PM,67.6,63.9,88,30.02,10.0,Calm,Calm,-,N/A,,Clear,0,2013-09-04 00:55:00
8:15 PM,66.6,63.9,91,30.03,10.0,Calm,Calm,-,N/A,,Clear,0,2013-09-04 01:15:00
8:35 PM,66.6,63.7,90,30.05,10.0,Calm,Calm,-,N/A,,Clear,0,2013-09-04 01:35:00
8:55 PM,65.7,63.3,92,30.06,10.0,Calm,Calm,-,N/A,,Clear,0,2013-09-04 01:55:00
9:15 PM,65.7,62.6,90,30.07,10.0,Calm,Calm,-,N/A,,Clear,0,2013-09-04 02:15:00
9:35 PM,65.1,62.6,92,30.07,10.0,Calm,Calm,-,N/A,,Clear,0,2013-09-04 02:35:00
9:55 PM,64.4,62.2,93,30.08,10.0,Calm,Calm,-,N/A,,Clear,0,2013-09-04 02:55:00
10:15 PM,63.7,62.2,95,30.08,10.0,Calm,Calm,-,N/A,,Clear,0,2013-09-04 03:15:00
10:35 PM,63.5,61.9,94,30.08,10.0,Calm,Calm,-,N/A,,Clear,0,2013-09-04 03:35:00
10:55 PM,63.1,61.5,94,30.09,10.0,Calm,Calm,-,N/A,,Clear,0,2013-09-04 03:55:00
11:15 PM,62.8,61.2,94,30.09,10.0,Calm,Calm,-,N/A,,Clear,0,2013-09-04 04:15:00
11:35 PM,62.1,61.2,97,30.09,10.0,Calm,Calm,-,N/A,,Clear,0,2013-09-04 04:35:00
11:55 PM,61.7,61.0,97,30.09,10.0,Calm,Calm,-,N/A,,Clear,0,2013-09-04 04:55:00